Location: Puketoi
(40.5833°S, 176.0167°E)
Time: 11:50:48
(UTC+00:00)

ATLAS CENTAUR R/B - Pass Details

Date: 08 February 2023
Orbit: 449 x 650 km, 64.7° (Epoch: 28 March)

Event Time Altitude Azimuth Distance (km) Brightness Sun altitude
Exits shadow 14:38:37 16° 87° (E) 1,296 3.5 -27.0°
Drops below altitude 10° 14:40:12 10° 111° (ESE) 1,641 4.4 -26.8°
Sets 14:42:54 0° 131° (SE) 2,558 6.0 -26.5°
